| time (UTC) | temp F | wind direction | speed MPH | gust MPH | rain 1hr in | rain 24hr in | rain mn in | humidity % | barometer mb |
| 20260901224516 | 98 | 113 | 4.0 | 10.0 | 0.00 | 0.00 | 0.00 | 31 | 1013.7 |
| 20260901223516 | 98 | 90 | 6.0 | 13.0 | 0.00 | 0.00 | 0.00 | 31 | 1013.7 |
| 20260901222516 | 98 | 113 | 6.0 | 11.0 | 0.00 | 0.00 | 0.00 | 30 | 1013.8 |
| 20260901221519 | 98 | 90 | 5.0 | 11.0 | 0.00 | 0.00 | 0.00 | 31 | 1013.9 |
| 20260901220519 | 98 | 90 | 4.0 | 10.0 | 0.00 | 0.00 | 0.00 | 31 | 1014.0 |
| 20260901215519 | 98 | 135 | 4.0 | 10.0 | 0.00 | 0.00 | 0.00 | 31 | 1014.0 |
| 20260901214516 | 98 | 135 | 9.0 | 12.0 | 0.00 | 0.00 | 0.00 | 31 | 1014.1 |
| 20260901213516 | 99 | 135 | 6.0 | 11.0 | 0.00 | 0.00 | 0.00 | 31 | 1014.1 |
| 20260901212516 | 98 | 135 | 2.0 | 7.0 | 0.00 | 0.00 | 0.00 | 31 | 1014.2 |
| 20260901211516 | 98 | 135 | 6.0 | 11.0 | 0.00 | 0.00 | 0.00 | 31 | 1014.5 |
| 20260901210516 | 99 | 90 | 5.0 | 11.0 | 0.00 | 0.00 | 0.00 | 31 | 1014.7 |
| 20260901205516 | 98 | 68 | 4.0 | 9.0 | 0.00 | 0.00 | 0.00 | 31 | 1014.8 |
| 20260901204516 | 98 | 90 | 6.0 | 13.0 | 0.00 | 0.00 | 0.00 | 31 | 1015.0 |
| 20260901203516 | 98 | 135 | 5.0 | 13.0 | 0.00 | 0.00 | 0.00 | 31 | 1015.2 |
| 20260901202516 | 98 | 90 | 4.0 | 9.0 | 0.00 | 0.00 | 0.00 | 31 | 1015.4 |
| 20260901201516 | 99 | 68 | 4.0 | 10.0 | 0.00 | 0.00 | 0.00 | 32 | 1015.7 |
| 20260901200516 | 99 | 90 | 5.0 | 9.0 | 0.00 | 0.00 | 0.00 | 33 | 1015.8 |
| 20260901195516 | 99 | 90 | 3.0 | 8.0 | 0.00 | 0.00 | 0.00 | 32 | 1016.0 |
| 20260901194516 | 98 | 90 | 3.0 | 9.0 | 0.00 | 0.00 | 0.00 | 33 | 1016.1 |
| 20260901193516 | 98 | 135 | 4.0 | 8.0 | 0.00 | 0.00 | 0.00 | 32 | 1016.0 |
| 20260901192516 | 94 | 135 | 4.0 | 9.0 | 0.00 | 0.00 | 0.00 | 35 | 1016.1 |
| 20260901191516 | 96 | 113 | 3.0 | 6.0 | 0.00 | 0.00 | 0.00 | 33 | 1016.4 |
| 20260901190516 | 96 | 135 | 2.0 | 4.0 | 0.00 | 0.00 | 0.00 | 35 | 1016.4 |
| 20260901185516 | 95 | 90 | 5.0 | 10.0 | 0.00 | 0.00 | 0.00 | 35 | 1016.5 |
| 20260901184516 | 97 | 135 | 4.0 | 9.0 | 0.00 | 0.00 | 0.00 | 35 | 1016.8 |
| 20260901183516 | 96 | 90 | 5.0 | 9.0 | 0.00 | 0.00 | 0.00 | 36 | 1016.9 |
| 20260901182516 | 97 | 113 | 6.0 | 10.0 | 0.00 | 0.00 | 0.00 | 35 | 1017.0 |
| 20260901181516 | 95 | 90 | 4.0 | 8.0 | 0.00 | 0.00 | 0.00 | 37 | 1017.2 |
| 20260901180516 | 93 | 135 | 1.0 | 5.0 | 0.00 | 0.00 | 0.00 | 38 | 1017.2 |
| 20260901175516 | 92 | 203 | 3.0 | 6.0 | 0.00 | 0.00 | 0.00 | 39 | 1017.3 |
| 20260901174516 | 94 | 135 | 3.0 | 8.0 | 0.00 | 0.00 | 0.00 | 36 | 1017.6 |
| 20260901173516 | 95 | 113 | 5.0 | 10.0 | 0.00 | 0.00 | 0.00 | 36 | 1017.8 |
| 20260901172516 | 93 | 158 | 6.0 | 10.0 | 0.00 | 0.00 | 0.00 | 40 | 1017.7 |
| 20260901171516 | 92 | 135 | 8.0 | 12.0 | 0.00 | 0.00 | 0.00 | 39 | 1017.9 |
| 20260901170516 | 91 | 135 | 11.0 | 18.0 | 0.00 | 0.00 | 0.00 | 39 | 1018.0 |
| 20260901165516 | 92 | 158 | 8.0 | 12.0 | 0.00 | 0.00 | 0.00 | 40 | 1018.0 |
| 20260901164516 | 90 | 135 | 6.0 | 10.0 | 0.00 | 0.00 | 0.00 | 40 | 1018.0 |
| 20260901163516 | 88 | 158 | 3.0 | 7.0 | 0.00 | 0.00 | 0.00 | 44 | 1017.9 |
| 20260901162516 | 86 | 158 | 3.0 | 5.0 | 0.00 | 0.00 | 0.00 | 47 | 1018.0 |
| 20260901161516 | 86 | 135 | 3.0 | 6.0 | 0.00 | 0.00 | 0.00 | 44 | 1018.1 |
| 20260901160516 | 86 | 158 | 2.0 | 6.0 | 0.00 | 0.00 | 0.00 | 49 | 1018.2 |
| 20260901155516 | 85 | 225 | 2.0 | 3.0 | 0.00 | 0.00 | 0.00 | 50 | 1018.0 |
| 20260901154516 | 84 | 203 | 2.0 | 5.0 | 0.00 | 0.00 | 0.00 | 52 | 1018.1 |
| 20260901153516 | 83 | 180 | 4.0 | 7.0 | 0.00 | 0.00 | 0.00 | 54 | 1018.0 |
| 20260901152516 | 82 | 180 | 3.0 | 5.0 | 0.00 | 0.00 | 0.00 | 57 | 1018.0 |
| 20260901151516 | 81 | 180 | 3.0 | 5.0 | 0.00 | 0.00 | 0.00 | 59 | 1018.1 |
| 20260901150516 | 81 | 158 | 3.0 | 5.0 | 0.00 | 0.00 | 0.00 | 61 | 1018.0 |
| 20260901145516 | 81 | 158 | 4.0 | 7.0 | 0.00 | 0.00 | 0.00 | 60 | 1018.1 |
| 20260901144516 | 81 | 158 | 5.0 | 9.0 | 0.00 | 0.00 | 0.00 | 60 | 1018.1 |
| 20260901143516 | 81 | 180 | 3.0 | 5.0 | 0.00 | 0.00 | 0.00 | 60 | 1018.0 |
| 20260901142516 | 80 | 158 | 2.0 | 4.0 | 0.00 | 0.00 | 0.00 | 61 | 1018.2 |
| 20260901141516 | 80 | 135 | 3.0 | 5.0 | 0.00 | 0.00 | 0.00 | 60 | 1018.2 |
| 20260901140516 | 80 | 135 | 2.0 | 4.0 | 0.00 | 0.00 | 0.00 | 62 | 1018.1 |
| 20260901135516 | 79 | 158 | 4.0 | 7.0 | 0.00 | 0.00 | 0.00 | 62 | 1017.9 |
| 20260901134516 | 79 | 158 | 4.0 | 8.0 | 0.00 | 0.00 | 0.00 | 63 | 1018.1 |
| 20260901133516 | 79 | 158 | 3.0 | 5.0 | 0.00 | 0.00 | 0.00 | 63 | 1018.1 |
| 20260901132516 | 79 | 135 | 4.0 | 6.0 | 0.00 | 0.00 | 0.00 | 64 | 1018.1 |
| 20260901131516 | 79 | 135 | 1.0 | 2.0 | 0.00 | 0.00 | 0.00 | 65 | 1018.1 |
| 20260901130516 | 78 | 135 | 1.0 | 4.0 | 0.00 | 0.00 | 0.00 | 64 | 1018.0 |
| 20260901125516 | 78 | 135 | 3.0 | 5.0 | 0.00 | 0.00 | 0.00 | 65 | 1017.9 |
| 20260901124516 | 78 | 158 | 3.0 | 7.0 | 0.00 | 0.00 | 0.00 | 65 | 1017.8 |
| 20260901123516 | 78 | 158 | 2.0 | 4.0 | 0.00 | 0.00 | 0.00 | 66 | 1017.7 |
| 20260901122516 | 78 | 135 | 2.0 | 3.0 | 0.00 | 0.00 | 0.00 | 64 | 1017.7 |
| 20260901121516 | 78 | 158 | 2.0 | 4.0 | 0.00 | 0.00 | 0.00 | 64 | 1017.7 |
| 20260901120516 | 78 | 203 | 2.0 | 8.0 | 0.00 | 0.00 | 0.00 | 63 | 1017.6 |
| 20260901115516 | 78 | 0.0 | 2.0 | 0.00 | 0.00 | 0.00 | 64 | 1017.5 | |
| 20260901114516 | 78 | 158 | 2.0 | 5.0 | 0.00 | 0.00 | 0.00 | 63 | 1017.4 |
| 20260901113516 | 78 | 158 | 2.0 | 6.0 | 0.00 | 0.00 | 0.00 | 64 | 1017.4 |
| 20260901112516 | 78 | 158 | 2.0 | 4.0 | 0.00 | 0.00 | 0.00 | 63 | 1017.4 |
| 20260901111516 | 79 | 0.0 | 0.0 | 0.00 | 0.00 | 0.00 | 63 | 1017.4 | |
| 20260901110516 | 79 | 203 | 2.0 | 5.0 | 0.00 | 0.00 | 0.00 | 63 | 1017.3 |
| 20260901105516 | 79 | 203 | 4.0 | 7.0 | 0.00 | 0.00 | 0.00 | 63 | 1017.0 |
| 20260901104516 | 79 | 203 | 4.0 | 8.0 | 0.00 | 0.00 | 0.00 | 63 | 1017.0 |
| 20260901103516 | 79 | 203 | 5.0 | 7.0 | 0.00 | 0.00 | 0.00 | 62 | 1016.9 |
| 20260901102516 | 79 | 203 | 6.0 | 10.0 | 0.00 | 0.00 | 0.00 | 62 | 1016.9 |
| 20260901101516 | 79 | 180 | 7.0 | 12.0 | 0.00 | 0.00 | 0.00 | 62 | 1017.1 |
| 20260901100516 | 79 | 180 | 7.0 | 12.0 | 0.00 | 0.00 | 0.00 | 61 | 1017.0 |
| 20260901095516 | 80 | 158 | 8.0 | 12.0 | 0.00 | 0.00 | 0.00 | 61 | 1017.1 |
| 20260901094516 | 80 | 180 | 9.0 | 15.0 | 0.00 | 0.00 | 0.00 | 61 | 1016.8 |
| 20260901093519 | 80 | 180 | 9.0 | 14.0 | 0.00 | 0.00 | 0.00 | 60 | 1016.8 |
| 20260901092519 | 80 | 180 | 10.0 | 15.0 | 0.00 | 0.00 | 0.00 | 60 | 1016.9 |
| 20260901091519 | 80 | 158 | 10.0 | 15.0 | 0.00 | 0.00 | 0.00 | 61 | 1016.7 |
| 20260901090516 | 80 | 158 | 10.0 | 14.0 | 0.00 | 0.00 | 0.00 | 61 | 1016.7 |
| 20260901085516 | 81 | 158 | 9.0 | 14.0 | 0.00 | 0.00 | 0.00 | 60 | 1016.7 |
| 20260901084516 | 81 | 158 | 8.0 | 12.0 | 0.00 | 0.00 | 0.00 | 60 | 1016.8 |
| 20260901083516 | 81 | 158 | 9.0 | 14.0 | 0.00 | 0.00 | 0.00 | 59 | 1016.9 |
| 20260901082516 | 81 | 158 | 7.0 | 12.0 | 0.00 | 0.00 | 0.00 | 59 | 1016.9 |
| 20260901081516 | 81 | 158 | 9.0 | 14.0 | 0.00 | 0.00 | 0.00 | 58 | 1016.7 |
| 20260901080516 | 81 | 158 | 9.0 | 14.0 | 0.00 | 0.00 | 0.00 | 58 | 1016.7 |
| 20260901075516 | 82 | 158 | 10.0 | 16.0 | 0.00 | 0.00 | 0.00 | 57 | 1016.7 |
| 20260901074516 | 82 | 158 | 10.0 | 17.0 | 0.00 | 0.00 | 0.00 | 56 | 1016.7 |
| 20260901073516 | 82 | 158 | 11.0 | 17.0 | 0.00 | 0.00 | 0.00 | 56 | 1016.7 |
| 20260901072516 | 82 | 158 | 11.0 | 16.0 | 0.00 | 0.00 | 0.00 | 55 | 1016.7 |
| 20260901071516 | 82 | 158 | 9.0 | 14.0 | 0.00 | 0.00 | 0.00 | 55 | 1016.7 |
| 20260901070516 | 82 | 158 | 6.0 | 9.0 | 0.00 | 0.00 | 0.00 | 56 | 1016.7 |
| 20260901065516 | 82 | 135 | 5.0 | 8.0 | 0.00 | 0.00 | 0.00 | 56 | 1016.7 |
| 20260901064516 | 82 | 135 | 6.0 | 9.0 | 0.00 | 0.00 | 0.00 | 56 | 1016.9 |
| 20260901063516 | 81 | 158 | 5.0 | 9.0 | 0.00 | 0.00 | 0.00 | 56 | 1016.6 |
| 20260901062516 | 81 | 158 | 5.0 | 8.0 | 0.00 | 0.00 | 0.00 | 56 | 1016.5 |
| 20260901061516 | 81 | 135 | 5.0 | 9.0 | 0.00 | 0.00 | 0.00 | 55 | 1016.4 |
| 20260901060516 | 81 | 158 | 5.0 | 7.0 | 0.00 | 0.00 | 0.00 | 56 | 1016.5 |
| 20260901055516 | 81 | 135 | 4.0 | 8.0 | 0.00 | 0.00 | 0.00 | 55 | 1016.4 |
| 20260901054516 | 81 | 135 | 4.0 | 5.0 | 0.00 | 0.00 | 0.00 | 55 | 1016.4 |
| 20260901053516 | 82 | 135 | 4.0 | 5.0 | 0.00 | 0.00 | 0.00 | 54 | 1016.3 |
| 20260901052516 | 82 | 135 | 4.0 | 7.0 | 0.00 | 0.00 | 0.00 | 54 | 1016.3 |
| 20260901051516 | 82 | 135 | 4.0 | 6.0 | 0.00 | 0.00 | 0.00 | 53 | 1016.2 |
| 20260901050516 | 82 | 135 | 3.0 | 6.0 | 0.00 | 0.00 | 0.00 | 53 | 1016.1 |
| 20260901045516 | 83 | 135 | 4.0 | 5.0 | 0.00 | 0.00 | 0.00 | 52 | 1016.1 |
| 20260901044516 | 83 | 135 | 4.0 | 7.0 | 0.00 | 0.00 | 0.00 | 51 | 1016.0 |
| 20260901043516 | 83 | 135 | 4.0 | 7.0 | 0.00 | 0.00 | 0.00 | 51 | 1015.7 |
| 20260901042516 | 83 | 113 | 5.0 | 7.0 | 0.00 | 0.00 | 0.00 | 51 | 1015.7 |
| 20260901041516 | 83 | 113 | 5.0 | 7.0 | 0.00 | 0.00 | 0.00 | 51 | 1015.7 |
| 20260901040516 | 84 | 113 | 5.0 | 7.0 | 0.00 | 0.00 | 0.00 | 50 | 1015.6 |
| 20260901035516 | 84 | 135 | 5.0 | 7.0 | 0.00 | 0.00 | 0.00 | 49 | 1015.5 |
| 20260901034516 | 85 | 135 | 5.0 | 8.0 | 0.00 | 0.00 | 0.00 | 48 | 1015.4 |
| 20260901033516 | 85 | 113 | 5.0 | 8.0 | 0.00 | 0.00 | 0.00 | 47 | 1015.3 |
| 20260901032516 | 85 | 135 | 5.0 | 8.0 | 0.00 | 0.00 | 0.00 | 46 | 1015.2 |
| 20260901031516 | 86 | 135 | 7.0 | 10.0 | 0.00 | 0.00 | 0.00 | 45 | 1015.1 |
| 20260901030516 | 86 | 135 | 7.0 | 11.0 | 0.00 | 0.00 | 0.00 | 45 | 1014.9 |
| 20260901025516 | 86 | 113 | 6.0 | 8.0 | 0.00 | 0.00 | 0.00 | 45 | 1014.6 |
| 20260901024516 | 87 | 113 | 5.0 | 8.0 | 0.00 | 0.00 | 0.00 | 44 | 1014.6 |
| 20260901023516 | 88 | 135 | 7.0 | 10.0 | 0.00 | 0.00 | 0.00 | 43 | 1014.3 |
| 20260901022516 | 88 | 135 | 6.0 | 10.0 | 0.00 | 0.00 | 0.00 | 42 | 1014.1 |
| 20260901021516 | 88 | 135 | 6.0 | 10.0 | 0.00 | 0.00 | 0.00 | 41 | 1013.9 |
| 20260901020516 | 89 | 135 | 7.0 | 9.0 | 0.00 | 0.00 | 0.00 | 40 | 1013.7 |
| 20260901015516 | 90 | 135 | 8.0 | 12.0 | 0.00 | 0.00 | 0.00 | 39 | 1013.6 |
| 20260901014516 | 90 | 135 | 9.0 | 12.0 | 0.00 | 0.00 | 0.00 | 39 | 1013.5 |
| 20260901013516 | 91 | 135 | 9.0 | 13.0 | 0.00 | 0.00 | 0.00 | 38 | 1013.2 |
| 20260901012516 | 91 | 135 | 10.0 | 13.0 | 0.00 | 0.00 | 0.00 | 38 | 1013.2 |
| 20260901011516 | 92 | 135 | 10.0 | 14.0 | 0.00 | 0.00 | 0.00 | 37 | 1013.3 |
| 20260901010516 | 92 | 113 | 12.0 | 15.0 | 0.00 | 0.00 | 0.00 | 37 | 1013.1 |
| 20260901005516 | 93 | 135 | 10.0 | 14.0 | 0.00 | 0.00 | 0.00 | 36 | 1013.2 |
| 20260901004516 | 93 | 113 | 10.0 | 14.0 | 0.00 | 0.00 | 0.00 | 36 | 1013.2 |
| 20260901003516 | 94 | 113 | 10.0 | 14.0 | 0.00 | 0.00 | 0.00 | 36 | 1013.0 |
| 20260901002516 | 94 | 135 | 8.0 | 14.0 | 0.00 | 0.00 | 0.00 | 35 | 1013.0 |
| 20260901001516 | 95 | 90 | 4.0 | 11.0 | 0.00 | 0.00 | 0.00 | 35 | 1012.9 |
| 20260901000516 | 95 | 135 | 7.0 | 11.0 | 0.00 | 0.00 | 0.00 | 34 | 1012.9 |
| 20260831235516 | 95 | 113 | 7.0 | 12.0 | 0.00 | 0.00 | 0.00 | 33 | 1012.7 |
| 20260831234516 | 96 | 90 | 5.0 | 13.0 | 0.00 | 0.00 | 0.00 | 33 | 1012.8 |
| 20260831233516 | 96 | 113 | 8.0 | 16.0 | 0.00 | 0.00 | 0.00 | 32 | 1012.8 |
| 20260831232516 | 96 | 90 | 4.0 | 10.0 | 0.00 | 0.00 | 0.00 | 32 | 1012.8 |
| 20260831231516 | 97 | 90 | 6.0 | 11.0 | 0.00 | 0.00 | 0.00 | 31 | 1012.8 |
| 20260831230516 | 97 | 135 | 6.0 | 11.0 | 0.00 | 0.00 | 0.00 | 32 | 1013.0 |
| 20260831225516 | 96 | 90 | 3.0 | 8.0 | 0.00 | 0.00 | 0.00 | 33 | 1013.0 |